Time,TemperatureF,DewpointF,PressureIn,WindDirection,WindDirectionDegrees,WindSpeedMPH,WindSpeedGustMPH,Humidity,HourlyPrecipIn,Conditions,Clouds,dailyrainin,SoftwareType,DateUTC
2013-05-04 00:01:00,70.0,32.0,29.76,North,360,0.0,-999.0,24,-99.99,,,-99.99,,2013-05-04 07:01:00,
2013-05-04 00:21:00,69.0,31.0,29.76,North,360,0.0,-999.0,24,-99.99,,,-99.99,,2013-05-04 07:21:00,
2013-05-04 00:31:00,68.0,30.0,29.76,North,360,0.0,-999.0,24,-99.99,,,-99.99,,2013-05-04 07:31:00,
2013-05-04 00:52:00,68.0,29.0,29.76,North,360,1.0,-999.0,23,-99.99,,,-99.99,,2013-05-04 07:52:00,
2013-05-04 01:01:00,69.0,30.0,29.76,North,360,0.0,-999.0,23,-99.99,,,-99.99,,2013-05-04 08:01:00,
2013-05-04 01:31:00,69.0,30.0,29.75,North,360,0.0,-999.0,23,-99.99,,,-99.99,,2013-05-04 08:31:00,
2013-05-04 01:52:00,69.0,31.0,29.75,North,360,0.0,-999.0,24,-99.99,,,-99.99,,2013-05-04 08:52:00,
2013-05-04 02:02:00,66.0,28.0,29.75,North,360,0.0,-999.0,24,-99.99,,,-99.99,,2013-05-04 09:02:00,
2013-05-04 02:21:00,66.0,28.0,29.74,North,360,0.0,-999.0,24,-99.99,,,-99.99,,2013-05-04 09:21:00,
2013-05-04 02:32:00,66.0,30.0,29.74,North,360,0.0,-999.0,26,-99.99,,,-99.99,,2013-05-04 09:32:00,
2013-05-04 02:52:00,65.0,30.0,29.73,North,360,0.0,-999.0,27,-99.99,,,-99.99,,2013-05-04 09:52:00,
2013-05-04 03:02:00,64.0,31.0,29.73,North,360,0.0,-999.0,29,-99.99,,,-99.99,,2013-05-04 10:02:00,
2013-05-04 03:12:00,64.0,31.0,29.73,North,360,0.0,-999.0,29,-99.99,,,-99.99,,2013-05-04 10:12:00,
2013-05-04 03:32:00,61.0,41.0,29.72,North,360,0.0,-999.0,48,-99.99,,,-99.99,,2013-05-04 10:32:00,
2013-05-04 03:42:00,61.0,41.0,29.72,North,360,0.0,-999.0,48,-99.99,,,-99.99,,2013-05-04 10:42:00,
2013-05-04 03:52:00,56.0,46.0,29.72,North,360,0.0,-999.0,69,-99.99,,,-99.99,,2013-05-04 10:52:00,
2013-05-04 04:02:00,55.0,46.0,29.72,North,360,0.0,-999.0,71,-99.99,,,-99.99,,2013-05-04 11:02:00,
2013-05-04 04:32:00,52.0,45.0,29.72,North,360,0.0,-999.0,78,-99.99,,,-99.99,,2013-05-04 11:32:00,
2013-05-04 04:42:00,52.0,45.0,29.72,North,360,0.0,-999.0,78,-99.99,,,-99.99,,2013-05-04 11:42:00,
2013-05-04 04:53:00,51.0,46.0,29.72,North,360,0.0,-999.0,82,-99.99,,,-99.99,,2013-05-04 11:53:00,
2013-05-04 05:03:00,51.0,46.0,29.71,North,360,0.0,-999.0,83,-99.99,,,-99.99,,2013-05-04 12:03:00,
2013-05-04 05:23:00,49.0,45.0,29.71,North,360,0.0,-999.0,86,-99.99,,,-99.99,,2013-05-04 12:23:00,
2013-05-04 05:33:00,49.0,46.0,29.71,North,360,0.0,-999.0,88,-99.99,,,-99.99,,2013-05-04 12:33:00,
2013-05-04 05:41:00,49.0,46.0,29.71,North,360,0.0,-999.0,88,-99.99,,,-99.99,,2013-05-04 12:41:00,
2013-05-04 05:51:00,49.0,46.0,29.70,North,360,0.0,-999.0,90,-99.99,,,-99.99,,2013-05-04 12:51:00,
2013-05-04 06:01:00,48.0,45.0,29.71,North,360,0.0,-999.0,90,-99.99,,,-99.99,,2013-05-04 13:01:00,
2013-05-04 06:11:00,48.0,45.0,29.71,North,360,0.0,-999.0,90,-99.99,,,-99.99,,2013-05-04 13:11:00,
2013-05-04 06:32:00,48.0,45.0,29.71,North,360,1.0,-999.0,91,-99.99,,,-99.99,,2013-05-04 13:32:00,
2013-05-04 06:41:00,48.0,45.0,29.71,North,360,1.0,-999.0,91,-99.99,,,-99.99,,2013-05-04 13:41:00,
2013-05-04 06:52:00,48.0,46.0,29.72,North,360,0.0,-999.0,92,-99.99,,,-99.99,,2013-05-04 13:52:00,
2013-05-04 07:02:00,48.0,46.0,29.72,North,360,0.0,-999.0,92,-99.99,,,-99.99,,2013-05-04 14:02:00,
2013-05-04 07:11:00,48.0,46.0,29.72,North,360,0.0,-999.0,92,-99.99,,,-99.99,,2013-05-04 14:11:00,
2013-05-04 07:21:00,48.0,46.0,29.72,North,360,0.0,-999.0,92,-99.99,,,-99.99,,2013-05-04 14:21:00,
2013-05-04 07:32:00,48.0,46.0,29.72,North,360,0.0,-999.0,92,-99.99,,,-99.99,,2013-05-04 14:32:00,
2013-05-04 07:51:00,48.0,46.0,29.72,North,360,0.0,-999.0,92,-99.99,,,-99.99,,2013-05-04 14:51:00,
2013-05-04 08:01:00,49.0,47.0,29.72,North,360,0.0,-999.0,93,-99.99,,,-99.99,,2013-05-04 15:01:00,
2013-05-04 08:11:00,49.0,47.0,29.72,North,360,0.0,-999.0,93,-99.99,,,-99.99,,2013-05-04 15:11:00,
2013-05-04 08:21:00,49.0,47.0,29.73,North,360,0.0,-999.0,92,-99.99,,,-99.99,,2013-05-04 15:21:00,
2013-05-04 08:33:00,49.0,47.0,29.72,North,355,0.0,-999.0,93,-99.99,,,-99.99,,2013-05-04 15:33:00,
2013-05-04 09:03:00,49.0,47.0,29.71,North,355,0.0,-999.0,93,-99.99,,,-99.99,,2013-05-04 16:03:00,
2013-05-04 09:22:00,50.0,48.0,29.71,North,355,0.0,-999.0,93,-99.99,,,-99.99,,2013-05-04 16:22:00,
2013-05-04 09:33:00,50.0,48.0,29.71,North,355,0.0,-999.0,94,-99.99,,,-99.99,,2013-05-04 16:33:00,
2013-05-04 09:52:00,51.0,49.0,29.70,North,360,0.0,-999.0,92,-99.99,,,-99.99,,2013-05-04 16:52:00,
2013-05-04 10:02:00,51.0,49.0,29.70,North,350,1.0,-999.0,92,-99.99,,,-99.99,,2013-05-04 17:02:00,
2013-05-04 10:22:00,51.0,49.0,29.70,North,360,0.0,-999.0,92,-99.99,,,-99.99,,2013-05-04 17:22:00,
2013-05-04 10:32:00,52.0,50.0,29.71,North,5,0.0,-999.0,92,-99.99,,,-99.99,,2013-05-04 17:32:00,
2013-05-04 10:52:00,53.0,50.0,29.72,NE,51,1.0,-999.0,91,-99.99,,,-99.99,,2013-05-04 17:52:00,
2013-05-04 11:01:00,53.0,49.0,29.72,ENE,67,0.0,-999.0,87,-99.99,,,-99.99,,2013-05-04 18:01:00,
2013-05-04 11:21:00,53.0,49.0,29.73,East,96,1.0,-999.0,87,-99.99,,,-99.99,,2013-05-04 18:21:00,
2013-05-04 11:32:00,53.0,49.0,29.73,ESE,121,1.0,-999.0,87,-99.99,,,-99.99,,2013-05-04 18:32:00,
2013-05-04 11:52:00,53.0,49.0,29.74,ESE,123,1.0,-999.0,86,-99.99,,,-99.99,,2013-05-04 18:52:00,
2013-05-04 12:01:00,54.0,50.0,29.74,SSW,196,2.0,-999.0,85,-99.99,,,-99.99,,2013-05-04 19:01:00,
2013-05-04 12:21:00,53.0,49.0,29.72,SE,138,2.0,-999.0,86,-99.99,,,-99.99,,2013-05-04 19:21:00,
2013-05-04 12:31:00,53.0,49.0,29.73,ESE,110,3.0,-999.0,87,-99.99,,,-99.99,,2013-05-04 19:31:00,
2013-05-04 12:52:00,52.0,49.0,29.73,East,90,2.0,-999.0,88,-99.99,,,-99.99,,2013-05-04 19:52:00,
2013-05-04 13:01:00,52.0,49.0,29.72,ENE,76,2.0,-999.0,88,-99.99,,,-99.99,,2013-05-04 20:01:00,
2013-05-04 13:21:00,52.0,49.0,29.72,East,96,2.0,-999.0,88,-99.99,,,-99.99,,2013-05-04 20:21:00,
2013-05-04 13:31:00,52.0,49.0,29.72,SE,124,3.0,-999.0,88,-99.99,,,-99.99,,2013-05-04 20:31:00,
2013-05-04 13:51:00,52.0,49.0,29.71,SE,132,3.0,-999.0,89,-99.99,,,-99.99,,2013-05-04 20:51:00,
2013-05-04 14:01:00,52.0,49.0,29.72,SW,219,2.0,-999.0,88,-99.99,,,-99.99,,2013-05-04 21:01:00,
2013-05-04 14:21:00,53.0,50.0,29.72,South,171,1.0,-999.0,88,-99.99,,,-99.99,,2013-05-04 21:21:00,
2013-05-04 14:33:00,53.0,49.0,29.72,ESE,114,2.0,-999.0,86,-99.99,,,-99.99,,2013-05-04 21:33:00,
2013-05-04 14:52:00,53.0,49.0,29.71,East,89,3.0,-999.0,87,-99.99,,,-99.99,,2013-05-04 21:52:00,
2013-05-04 15:02:00,53.0,49.0,29.71,SE,138,2.0,-999.0,87,-99.99,,,-99.99,,2013-05-04 22:02:00,
2013-05-04 15:22:00,52.0,49.0,29.71,ESE,117,3.0,-999.0,88,-99.99,,,-99.99,,2013-05-04 22:22:00,
2013-05-04 15:32:00,53.0,50.0,29.70,ESE,107,3.0,-999.0,88,-99.99,,,-99.99,,2013-05-04 22:32:00,
2013-05-04 15:52:00,52.0,49.0,29.70,SSE,168,3.0,-999.0,88,-99.99,,,-99.99,,2013-05-04 22:52:00,
2013-05-04 16:02:00,52.0,49.0,29.69,ESE,103,3.0,-999.0,88,-99.99,,,-99.99,,2013-05-04 23:02:00,
2013-05-04 16:21:00,52.0,49.0,29.69,ENE,76,2.0,-999.0,89,-99.99,,,-99.99,,2013-05-04 23:21:00,
2013-05-04 16:32:00,52.0,49.0,29.68,South,189,4.0,-999.0,88,-99.99,,,-99.99,,2013-05-04 23:32:00,
2013-05-04 16:52:00,52.0,49.0,29.68,SE,128,3.0,-999.0,89,-99.99,,,-99.99,,2013-05-04 23:52:00,
2013-05-04 17:01:00,52.0,49.0,29.68,SE,136,3.0,-999.0,89,-99.99,,,-99.99,,2013-05-05 00:01:00,
2013-05-04 17:21:00,52.0,49.0,29.69,SE,135,3.0,-999.0,90,-99.99,,,-99.99,,2013-05-05 00:21:00,
2013-05-04 17:31:00,51.0,48.0,29.68,SE,139,3.0,-999.0,90,-99.99,,,-99.99,,2013-05-05 00:31:00,
2013-05-04 17:51:00,51.0,48.0,29.69,ESE,102,4.0,-999.0,91,-99.99,,,-99.99,,2013-05-05 00:51:00,
2013-05-04 18:01:00,51.0,49.0,29.69,ESE,123,3.0,-999.0,92,-99.99,,,-99.99,,2013-05-05 01:01:00,
2013-05-04 18:21:00,50.0,48.0,29.68,ESE,119,4.0,-999.0,92,-99.99,,,-99.99,,2013-05-05 01:21:00,
2013-05-04 18:32:00,50.0,48.0,29.68,SSE,156,3.0,-999.0,92,-99.99,,,-99.99,,2013-05-05 01:32:00,
2013-05-04 18:52:00,50.0,48.0,29.68,East,101,4.0,-999.0,92,-99.99,,,-99.99,,2013-05-05 01:52:00,
2013-05-04 19:02:00,50.0,48.0,29.69,SE,145,3.0,-999.0,93,-99.99,,,-99.99,,2013-05-05 02:02:00,
2013-05-04 19:31:00,49.0,47.0,29.68,South,181,4.0,-999.0,93,-99.99,,,-99.99,,2013-05-05 02:31:00,
2013-05-04 19:51:00,49.0,47.0,29.68,SE,132,3.0,-999.0,93,-99.99,,,-99.99,,2013-05-05 02:51:00,
2013-05-04 20:01:00,49.0,47.0,29.68,South,184,4.0,-999.0,93,-99.99,,,-99.99,,2013-05-05 03:01:00,
2013-05-04 20:21:00,49.0,47.0,29.68,South,190,5.0,-999.0,93,-99.99,,,-99.99,,2013-05-05 03:21:00,
2013-05-04 20:32:00,49.0,47.0,29.68,SSE,163,4.0,-999.0,93,-99.99,,,-99.99,,2013-05-05 03:32:00,
2013-05-04 20:52:00,49.0,47.0,29.69,SE,139,4.0,-999.0,93,-99.99,,,-99.99,,2013-05-05 03:52:00,
2013-05-04 21:02:00,49.0,47.0,29.70,ESE,122,4.0,-999.0,92,-99.99,,,-99.99,,2013-05-05 04:02:00,
2013-05-04 21:12:00,49.0,47.0,29.70,ESE,122,4.0,-999.0,92,-99.99,,,-99.99,,2013-05-05 04:12:00,
2013-05-04 21:22:00,49.0,47.0,29.70,SE,128,2.0,-999.0,93,-99.99,,,-99.99,,2013-05-05 04:22:00,
2013-05-04 21:32:00,50.0,48.0,29.71,South,189,4.0,-999.0,92,-99.99,,,-99.99,,2013-05-05 04:32:00,
2013-05-04 21:43:00,50.0,48.0,29.71,South,189,4.0,-999.0,92,-99.99,,,-99.99,,2013-05-05 04:43:00,
2013-05-04 21:52:00,50.0,48.0,29.71,ESE,121,5.0,-999.0,92,-99.99,,,-99.99,,2013-05-05 04:52:00,
2013-05-04 22:02:00,50.0,48.0,29.71,SSE,161,5.0,-999.0,93,-99.99,,,-99.99,,2013-05-05 05:02:00,
2013-05-04 22:12:00,50.0,48.0,29.71,SSE,161,5.0,-999.0,93,-99.99,,,-99.99,,2013-05-05 05:12:00,
2013-05-04 22:21:00,50.0,48.0,29.71,East,101,4.0,-999.0,93,-99.99,,,-99.99,,2013-05-05 05:21:00,
2013-05-04 22:31:00,50.0,48.0,29.71,ESE,105,4.0,-999.0,93,-99.99,,,-99.99,,2013-05-05 05:31:00,
2013-05-04 22:42:00,50.0,48.0,29.71,ESE,105,4.0,-999.0,93,-99.99,,,-99.99,,2013-05-05 05:42:00,
2013-05-04 22:51:00,50.0,48.0,29.72,SE,126,4.0,-999.0,93,-99.99,,,-99.99,,2013-05-05 05:51:00,
2013-05-04 23:01:00,50.0,48.0,29.72,ESE,114,4.0,-999.0,94,-99.99,,,-99.99,,2013-05-05 06:01:00,
2013-05-04 23:11:00,50.0,48.0,29.72,ESE,114,4.0,-999.0,94,-99.99,,,-99.99,,2013-05-05 06:11:00,
2013-05-04 23:21:00,50.0,48.0,29.72,SSE,156,4.0,-999.0,94,-99.99,,,-99.99,,2013-05-05 06:21:00,
2013-05-04 23:31:00,50.0,48.0,29.72,East,101,4.0,-999.0,94,-99.99,,,-99.99,,2013-05-05 06:31:00,
2013-05-04 23:42:00,50.0,48.0,29.72,East,101,4.0,-999.0,94,-99.99,,,-99.99,,2013-05-05 06:42:00,
2013-05-04 23:51:00,50.0,48.0,29.72,ESE,107,5.0,-999.0,94,-99.99,,,-99.99,,2013-05-05 06:51:00,